Regional Weather Roundup
Issued by NWS Albany, NY

Home | Current Version | Previous Version | Text Only | Print | Product List | Glossary On
Versions: 1 2 3 4 5 6 7 8 9 10 11 12 13 14 15 16 17 18 19 20 21 22 23 24 25 26 27
000
ASUS41 KALY 241610
RWRALY

NEW YORK STATE HOURLY WEATHER ROUNDUP
NATIONAL WEATHER SERVICE ALBANY NY
1200 PM EDT TUE APR 24 2018

NOTE: "FAIR" INDICATES FEW OR NO CLOUDS BELOW 12,000 FEET WITH NO
SIGNIFICANT WEATHER AND/OR NO OBSTRUCTIONS TO VISIBILITY.

NYZ032-033-038>043-046>054-057>066-NYZ062>081-082-084-241700-
EAST


CITY           SKY/WX    TMP DP  RH WIND       PRES   REMARKS
ALBANY         FAIR      65  26  23 S10G17    30.31F
GLENS FALLS    FAIR      63  32  31 SE13      30.29F
POUGHKEEPSIE   FAIR      62  29  28 S12G26    30.34F
NEWBURGH       MOSUNNY   63  34  34 S14       30.35F
MONTGOMERY     FAIR      63  34  33 SW15G22   30.33F
WHITE PLAINS   FAIR      60  32  34 SE12G17   30.37F
ISLIP          PTSUNNY   62  39  42 S12       30.39F
NEW YORK CITY  PTSUNNY   62  37  39 SE13G20   30.37F
CENTRAL PARK   FAIR      64  37  36 VRB5      30.40F
$$

NYZ005>009-017-018-044>046-055-056-241700-
CENTRAL


CITY           SKY/WX    TMP DP  RH WIND       PRES   REMARKS
FULTON         FAIR      66  24  20 S12G20    30.23F
SYRACUSE       PTSUNNY   66  22  18 S15G22    30.23F
ROME           FAIR      64  21  19 MISG      30.26F
ELMIRA         FAIR      66  38  35 VRB7      30.22F
BINGHAMTON     FAIR      58  25  28 S10G22    30.25F
MONTICELLO     FAIR      61  29  29 SE12G17   30.32F
$$

NYZ026>034-041>043-087-241700-
NORTH


CITY           SKY/WX    TMP DP  RH WIND       PRES   REMARKS
WATERTOWN      FAIR      67  32  27 SW9G22    30.21F
FORT DRUM      NOT AVBL
OGDENSBURG     FAIR      68  40  37 SW15      30.21F
MASSENA        FAIR      68  42  38 SW15      30.21F
SARANAC LAKE   FAIR      63  23  21 W12G20    30.23F
PLATTSBURGH    FAIR      63  33  32 SE16G22   30.23F
$$

NYZ001>004-010>016-019>021-085-241700-
WEST


CITY           SKY/WX    TMP DP  RH WIND       PRES   REMARKS
NIAGARA FALLS  PTSUNNY   64  37  36 S10       30.16F
BUFFALO        PTSUNNY   63  36  36 S8        30.17F
DUNKIRK        CLOUDY    61  40  45 S21G26    30.16F
JAMESTOWN      CLOUDY    55  39  54 S9        30.17F
WELLSVILLE     CLOUDY    57  38  48 S13G22    30.22F
ROCHESTER      CLOUDY    65  37  35 SW10G23   30.20F
PENN YAN       FAIR      64  30  27 S13       30.23F
$$

             KEY
       WCI = WIND CHILL INDEX
       VSB = VISIBILITY
       HX  = HEAT INDEX
$$




USA.gov is the U.S. government's official web portal to all federal, state and local government web resources and services.